Weather in Khvorostyanka

Russia / Samara Oblast     52°36′55″N   48°57′53″E
В апреле 2022 года жителям России запретили посещать сайт meteo.paraplan.net по решению Генеральной прокуратуры. Аудитория сайта уменьшилась в 10 раз. Владельцы сайта не видят смысла в поддержке погодного сервера в таких условиях. Сайт будет закрыт в октябре.
temp.,
°C
wind,
m/s
gust,
m/s
humid.,
%
clouds,
%
prec.,
mm/h
press.,
hPa
HPBL,
m
25 september, sun
sun2501:00+12wnw0060100 0.0 101219
04:00+12s2262100 0.0 101126
07:00+12s2363100 0.0 101069
10:00+14s3455100 0.0 1009751
13:00+15sw655594 0.1 10071174
16:00+12sw567496 0.1 1007565
19:00+11sw4782100 0.3 1007317
22:00+10wsw5107339 0.5 1007421
26 september, mon
mon2601:00+8sw498291 0.0 1008396
04:00+9sw488093 0.2 1008636
07:00+9wsw5882100 0.1 1009631
10:00+9sw5881100 0.5 1010754
13:00+10wsw6979100 0.3 1012819
16:00+11wsw797188 0.4 10131073
19:00+9wsw6117978 0.1 1014528
22:00+10wsw4972100 0.2 1015572
27 september, tue
tue2701:00+9wsw3775100 0.1 1016244
04:00+9sw357295 0.1 1016150
07:00+7wsw34825 0.0 101651
10:00+12wsw3559100 0.0 1017599
13:00+15w5640100 0.0 10171521
16:00+15wsw4540100 0.0 10161494
19:00+9n2385100 2.4 1017187
22:00+9e2390100 5.4 1017177
28 september, wed
wed2801:00+9ese3591100 1.1 1016229
04:00+9ene3692100 1.8 1016274
07:00+9ene3792100 0.0 1016324
10:00+11e5785100 0.0 1015484
13:00+14e5674100 0.0 1015688
16:00+13e4676100 0.0 1014554
19:00+12e4987100 0.7 1014427
22:00+11e51091100 1.3 1013346
29 september, thu
thu2901:00+10e61193100 0.0 1013354
04:00+9ene61189100 0.0 1012375
07:00+9ene7129092 0.0 1012395
10:00+10e71082100 0.4 1012506
13:00+10ene61183100 1.6 1012476
16:00+9ne71283100 1.6 1012477
19:00+8ne61288100 0.0 1013405
22:00+9ne61191100 0.0 1014426